RH
19 15 12 12 12 12 11 14 20 21 24 34 35 37 55 45 81 88 77 48 47 57 49 60 54 48 29 22 19 20 21 21 43 37 98 58 98 82 73 99 95 83 81 76
17 18 13 11 12 11 12 14 16 18 22 29 29 36 64 44 58 74 75 51 48 39 44 51 48 32 22 19 20 21 21 22 21 69 37 97 75 76 89 87 94 88 81 72
16 14 14 12 12 13 13 13 16 17 30 32 28 34 56 70 77 74 70 74 59 40 40 39 37 25 23 23 23 23 24 19 14 35 25 46 89 95 83 81 78 60 46 25
15 15 14 16 15 14 14 13 15 18 27 28 28 29 42 58 64 57 38 44 41 38 29 25 22 23 24 25 25 24 21 14 11 16 21 25 46 69 68 63 18 13 8 2
16 18 17 14 14 14 14 12 13 15 19 28 29 30 34 46 58 56 43 47 35 26 23 21 23 24 24 26 25 24 18 12 10 11 13 16 19 17 16 12 9 3 1 1
20 16 19 16 15 15 14 15 14 13 14 23 36 36 31 36 43 48 57 51 27 21 19 19 23 25 27 25 24 22 16 11 10 12 15 16 15 11 8 3 1 1 1 1
21 20 18 23 20 18 15 18 16 15 16 18 23 31 31 26 34 42 48 60 26 19 18 17 18 23 26 25 24 20 14 11 12 14 12 10 7 3 2 2 2 2 2 2
16 16 17 18 20 15 14 17 18 20 16 14 14 21 22 25 28 34 42 57 35 23 20 20 22 30 27 26 24 21 13 12 13 12 8 3 2 2 2 2 2 2 2 2
20 18 14 17 19 20 15 15 15 15 13 14 13 15 16 21 25 32 40 53 64 31 21 20 23 29 28 26 27 19 11 12 13 9 3 2 2 2 2 2 2 2 2 2
25 24 22 21 21 18 19 14 16 16 24 22 16 15 16 19 20 27 38 46 61 55 26 25 28 30 32 31 28 10 9 12 8 4 2 2 2 2 2 2 2 2 3 3
46 33 28 25 24 21 17 18 16 16 17 25 22 15 13 14 23 27 33 42 58 38 26 27 29 32 34 37 21 6 6 6 4 3 2 3 3 3 3 3 3 3 3 3
70 61 36 28 25 24 22 16 16 20 18 18 20 19 14 18 17 29 32 38 52 51 36 24 32 35 42 40 21 13 6 4 3 3 3 3 3 3 3 3 3 3 3 3
72 60 39 31 28 27 26 22 18 18 18 19 24 22 18 20 21 28 34 35 52 68 60 32 37 38 45 44 32 31 15 3 3 4 4 4 4 4 4 4 4 4 4 4
83 82 63 37 25 23 26 26 25 21 23 25 22 20 18 18 21 24 28 37 53 52 50 36 37 38 48 46 41 38 20 4 4 4 4 4 4 4 4 4 4 4 4 4
95 85 71 60 45 37 34 32 25 24 23 25 25 22 20 18 23 25 27 37 54 55 52 34 38 37 50 48 48 42 21 5 5 5 5 5 5 5 5 5 5 4 4 4
88 93 81 76 69 62 53 46 34 26 22 22 24 25 24 21 19 23 30 44 55 62 43 46 39 37 54 48 51 45 36 8 6 6 6 6 6 6 6 6 5 5 4 4
88 79 60 79 68 57 53 44 38 30 25 24 23 24 25 26 26 36 43 20 24 46 34 39 38 37 44 44 50 49 45 18 7 7 7 6 6 6 6 6 6 5 5 5
70 77 71 66 68 89 59 43 36 31 29 27 26 26 25 26 28 39 48 26 28 29 34 56 54 46 43 43 49 54 51 30 12 10 8 7 7 7 7 7 6 5 5 5
58 63 74 70 53 56 48 41 34 28 27 28 29 26 26 27 28 34 44 45 31 32 32 32 35 48 51 50 54 57 53 42 22 15 10 8 7 8 8 8 7 6 6 6
48 53 68 64 59 61 43 45 42 43 39 36 42 37 26 27 29 29 36 42 54 36 40 50 47 44 50 50 56 54 55 53 33 22 13 9 8 8 9 8 7 6 6 6
45 50 57 66 68 49 38 37 40 58 71 64 41 41 39 32 29 30 29 36 37 36 30 31 42 37 36 53 60 58 56 57 41 28 15 10 9 10 10 9 8 7 7 7
41 58 95 63 56 57 37 43 43 86 95 69 57 52 48 45 44 38 39 46 38 35 28 24 30 34 39 43 63 64 61 61 47 33 17 12 11 11 10 10 8 8 7 7
57 53 62 96 91 52 83 97 99 99 96 82 61 50 42 41 47 51 49 52 60 41 33 26 29 31 34 36 46 68 71 65 51 37 20 16 13 12 11 10 9 8 7 7
54 55 64 77 53 78 91 94 100 97 100 88 67 52 44 40 34 32 30 52 35 50 37 35 32 33 38 33 46 78 77 69 52 37 23 19 16 13 12 11 9 8 8 8
68 67 61 63 64 66 70 75 90 97 95 90 87 69 54 54 42 36 35 46 36 34 67 37 34 34 37 49 55 79 80 69 54 38 25 23 19 14 12 11 10 8 8 8
75 72 67 59 50 62 63 72 80 81 73 77 94 93 69 66 47 42 38 36 45 32 33 39 44 44 48 52 63 82 82 69 56 37 29 27 23 15 13 12 10 9 9 8
Wind_Speed
15 19 29 28 31 33 34 34 33 34 30 29 31 30 24 26 27 28 29 33 33 34 32 28 25 24 23 19 17 17 17 18 18 20 24 28 22 25 22 21 23 20 15 16
18 27 23 25 27 30 35 36 34 30 23 24 26 31 22 29 33 30 29 32 35 36 32 30 28 26 24 20 19 19 19 20 21 24 28 24 26 27 20 19 17 18 20 22
24 22 16 25 27 29 32 38 31 32 19 18 20 29 23 23 26 28 29 28 34 36 32 30 29 26 23 21 20 20 19 19 20 19 20 21 17 19 23 22 21 22 21 19
26 23 24 20 28 28 33 32 34 34 20 25 28 25 32 30 31 33 37 35 35 35 33 31 29 28 26 23 21 20 20 19 19 20 19 19 20 20 19 19 19 16 15 14
25 18 22 30 28 23 35 27 31 36 33 24 26 34 29 32 33 39 38 37 38 37 34 32 31 28 26 23 21 20 21 20 20 20 19 19 18 17 16 15 15 13 11 9
25 19 20 23 24 26 23 28 28 32 39 26 31 33 36 44 42 36 35 38 40 38 35 33 32 29 26 23 22 22 23 21 20 19 19 17 16 15 14 14 11 9 9 10
26 30 28 20 21 21 26 23 24 24 24 19 41 43 37 23 39 40 38 39 39 38 39 38 35 31 26 23 23 24 24 21 20 19 18 17 16 15 14 12 11 10 11 11
24 26 27 28 33 26 30 30 27 23 18 25 46 43 54 38 25 37 36 38 33 41 46 42 38 33 28 25 27 25 23 22 20 19 18 17 17 16 14 12 12 12 12 11
25 28 23 17 25 26 32 35 38 40 37 32 40 37 47 30 34 27 31 34 37 38 38 42 39 36 30 29 27 26 24 24 22 20 18 18 17 16 15 15 15 14 12 11
30 33 23 17 19 27 34 33 30 39 26 28 36 42 36 38 36 37 32 35 38 42 42 45 39 37 32 31 29 29 27 26 23 21 20 19 19 19 17 16 14 13 11 11
18 26 34 23 30 27 29 35 36 32 41 18 21 34 40 35 37 41 36 34 38 41 35 34 37 38 36 33 30 28 27 25 24 23 22 21 20 19 17 16 14 12 12 12
12 15 30 39 29 25 31 34 37 34 30 38 41 34 35 20 26 40 34 36 39 44 42 35 38 39 39 34 31 27 26 26 25 24 23 22 21 19 18 17 14 14 14 12
13 12 24 27 28 34 32 34 37 36 40 36 27 37 39 27 16 23 28 31 36 42 40 41 40 41 41 36 34 28 26 27 26 25 23 23 21 20 19 17 16 16 14 13
11 16 22 24 33 29 31 32 32 36 36 36 42 41 39 39 28 20 21 25 35 42 38 39 39 45 42 39 34 29 28 27 26 25 24 23 22 21 20 19 18 16 14 14
10 18 21 27 33 32 31 31 35 37 39 39 41 47 39 35 25 27 26 26 33 37 40 42 42 44 43 42 38 33 29 27 26 25 24 23 23 22 21 21 18 16 15 13
15 19 16 26 24 27 33 31 29 31 40 42 43 42 35 37 33 24 30 26 33 38 43 44 41 42 46 45 40 36 29 27 27 26 25 25 25 24 23 21 19 17 15 12
26 24 23 31 25 30 36 40 38 33 31 34 42 41 33 34 31 20 22 33 34 36 33 41 40 41 49 45 41 37 30 27 26 26 26 26 25 24 22 21 19 16 14 13
35 26 23 29 26 18 29 35 35 38 37 36 37 33 32 32 33 27 25 35 33 28 28 36 37 40 43 44 42 38 31 29 27 26 26 26 25 24 23 21 19 17 15 13
37 36 30 30 28 34 31 23 29 32 42 37 37 36 33 28 27 27 29 32 27 24 25 25 28 35 41 45 44 40 35 32 29 28 26 26 26 25 23 21 20 18 15 14
27 36 37 24 23 25 47 33 29 26 35 24 21 29 36 33 31 29 29 31 31 26 27 29 29 30 38 42 46 42 39 35 31 27 27 27 27 25 24 22 20 18 15 14
23 32 43 45 37 36 33 23 25 27 24 16 20 19 20 31 33 27 24 30 33 34 32 31 27 27 29 37 47 46 44 40 31 29 29 28 27 26 24 22 20 18 16 15
30 16 18 40 34 28 16 29 39 24 19 18 15 16 16 14 20 27 22 18 33 33 30 32 32 38 37 32 43 50 49 39 34 31 29 28 27 27 24 23 21 19 17 15
27 22 30 12 13 25 7 13 11 4 23 21 14 17 16 20 26 27 24 17 27 38 37 38 34 38 48 41 41 53 50 44 37 32 30 30 28 27 26 24 22 20 18 16
35 33 34 27 35 21 24 24 15 6 16 25 25 13 22 25 26 23 21 12 15 24 34 37 38 39 44 46 42 53 53 46 39 32 32 31 29 29 27 25 23 21 19 16
36 28 36 40 48 38 34 27 26 16 18 21 28 26 19 16 22 22 19 16 19 17 23 32 37 39 40 32 36 56 56 48 40 34 34 33 30 29 28 26 24 23 18 16
37 40 39 56 43 33 39 33 29 33 32 29 26 24 19 17 20 22 21 22 17 21 22 22 28 33 36 34 36 58 57 50 42 37 37 34 30 30 28 24 23 20 19 17
Wind_Direction
235 226 227 228 229 236 237 236 229 236 213 207 220 218 217 220 196 199 202 212 214 215 219 217 220 221 227 228 235 239 244 253 251 257 256 254 271 257 272 272 278 277 270 275
224 236 238 237 234 236 234 241 245 238 210 199 217 219 207 218 208 205 203 210 214 220 218 219 220 221 226 228 238 246 254 258 258 242 255 250 262 260 256 262 260 266 273 279
235 237 253 234 233 235 235 233 239 240 198 202 219 220 215 210 205 206 208 209 214 219 219 219 220 224 231 240 249 256 259 260 254 242 248 247 242 252 255 255 264 271 276 281
241 247 244 236 236 232 239 232 234 239 210 213 215 226 214 213 208 215 218 216 218 218 220 220 225 230 236 244 252 259 262 259 251 244 243 245 241 249 252 257 264 266 270 274
234 241 233 236 239 239 243 239 240 234 243 233 218 225 225 213 217 215 217 216 220 223 226 226 230 234 240 245 253 258 260 256 248 243 242 242 243 245 248 250 254 259 261 267
240 239 242 243 244 241 242 240 242 241 233 236 224 218 229 220 226 224 218 218 224 226 230 232 235 237 239 245 253 259 257 247 240 235 233 233 235 238 244 247 245 246 250 255
243 246 241 248 242 237 227 227 228 234 230 231 223 233 230 240 231 225 219 214 233 232 233 237 239 239 241 244 250 251 248 240 232 228 228 233 238 239 234 231 231 237 244 248
243 240 241 239 238 235 225 223 228 231 226 231 231 228 239 236 236 230 219 217 221 229 229 233 236 236 240 245 247 248 240 233 228 229 233 233 229 225 224 224 229 233 237 243
256 257 247 241 241 231 229 223 230 241 245 243 237 238 242 238 235 217 215 213 211 224 235 236 237 236 238 243 247 246 239 235 232 232 231 227 224 223 223 224 225 229 235 246
250 258 248 243 243 234 233 229 231 236 244 244 241 245 234 231 228 221 214 213 210 224 229 234 234 234 235 238 239 237 233 231 231 229 224 223 223 223 221 222 226 232 242 253
251 248 248 245 235 239 232 236 239 238 236 251 251 242 237 243 219 219 222 217 216 236 243 239 232 231 233 234 234 232 231 230 228 224 222 222 222 222 223 225 230 237 244 250
251 258 251 242 243 244 242 242 232 238 236 239 246 253 239 265 243 216 220 219 219 233 233 228 221 228 229 230 227 225 227 225 221 221 222 223 222 223 225 229 233 238 242 249
265 243 252 246 243 239 242 243 241 235 240 248 240 243 239 252 267 217 213 220 213 221 218 220 223 225 226 225 223 224 228 221 218 219 220 221 222 224 226 229 233 237 241 248
284 261 250 256 246 245 236 239 242 243 229 240 247 249 239 241 240 238 220 217 212 230 226 228 233 227 224 223 220 223 227 219 218 218 219 220 222 225 228 230 232 233 237 244
298 266 261 259 261 262 266 264 236 236 239 238 240 242 240 239 236 234 230 224 216 214 220 229 230 225 219 220 216 219 222 219 218 219 220 222 224 225 227 228 228 230 235 243
288 271 273 277 267 260 264 258 255 241 233 240 244 246 243 241 245 248 228 219 213 211 222 222 225 225 217 220 215 217 220 220 218 220 222 224 224 224 225 225 225 228 233 243
274 270 264 269 268 263 254 246 243 247 247 242 246 248 246 243 239 246 226 235 239 227 237 228 220 225 222 221 217 217 221 221 221 222 223 224 224 224 223 223 224 226 233 242
252 251 256 259 267 275 246 240 243 247 251 250 252 252 249 245 242 236 239 234 236 233 236 214 221 225 227 224 219 217 220 222 221 225 224 225 224 222 222 222 222 226 232 242
239 240 247 247 241 251 257 242 241 246 250 248 253 251 248 244 241 229 227 241 238 240 248 241 238 231 226 222 219 217 221 223 222 226 225 225 223 221 221 221 222 226 232 241
239 233 229 236 240 243 248 248 254 267 273 256 253 256 246 241 235 237 229 236 241 227 227 229 237 241 236 227 220 220 223 226 225 226 226 223 220 219 220 220 223 226 232 241
251 227 220 230 241 251 249 247 247 271 250 268 238 253 250 240 236 228 237 228 243 256 258 249 238 241 246 231 221 220 224 226 223 225 224 221 220 219 219 221 224 227 233 240
265 279 229 233 236 246 249 243 254 263 244 238 227 226 221 221 213 223 242 237 233 239 239 243 240 244 245 232 220 220 225 221 223 225 224 222 221 220 220 221 223 227 232 238
264 255 260 266 244 226 252 210 175 310 253 237 235 219 185 194 210 214 226 237 243 238 241 241 239 237 239 238 222 219 222 222 224 224 224 221 220 220 220 221 223 227 231 236
257 256 266 272 254 265 268 251 247 276 279 240 243 199 179 184 203 204 204 236 229 231 238 239 235 236 233 235 228 214 222 222 224 223 224 222 220 220 220 220 222 226 230 235
253 259 257 264 258 266 264 275 276 221 267 264 233 238 213 210 202 205 214 220 229 234 224 242 236 236 237 228 224 213 216 220 222 221 223 221 220 220 220 220 223 226 230 237
252 256 256 258 255 269 268 269 275 282 285 274 248 225 232 235 216 212 221 241 231 233 227 241 240 242 233 224 219 212 213 216 219 221 222 222 221 222 223 223 225 225 227 234